星链-11695 (STARLINK-11695)

导读 | 豆包AI

STARLINK-11695是美国太空探索技术公司SpaceX星链星座的成员卫星,于2025年4月13日发射入轨。星链项目旨在构建全球卫星互联网星座,该卫星承担着为全球偏远、网络基础设施匮乏区域提供高速低延迟互联网接入服务的任务,属于星链低轨通信卫星组网的补充卫星,进一步完善了星链星座的覆盖能力与服务稳定性。

基本信息
目录编号:
63551
目录名称:
STARLINK-11695
国际标识:
2025-075D
轨道中心:
EARTH
卫星名称:
星链-11695
卫星全名:
星链-11695 (STARLINK-11695)
卫星状态:
在轨 (已飞行384 天)
发射日期:
2025-04-13 UTC
国别 :
美国 (US)
星等 :
--
轨道信息
数据来源 国际轨道数据
星历时间: 2026-05-01T23:45:28+0800
18小时前
查看轨道信息
半长轴: 6734.524km
偏心率: 0.0001798
轨道倾角: 43.000°
近地点辐角 242.500°
升交点赤经 194.113°
平近点角 117.569°
近地点: 355.176km
远地点: 357.598km
周期: 91.668分钟
每日圈数: 15.708781
详细信息
固有亮度:
5
最大亮度:
2.5
卫星平台:
Starlink V1.0
覆盖范围:
全球
运营商:
太空探索技术公司
运营商所在国:
美国
制造商(研发单位):
太空探索技术公司
制造商所在国:
美国
使用方式:
暂无
卫星简介
Starlink 计划是 SpaceX 推出的全球卫星互联网项目,通过发射低轨道卫星,为全球尤其是偏远地区提供高速、低延迟的互联网服务。自 2019 年起,Starlink 已部署数千颗卫星,旨在缩小全球数字鸿沟,推动互联网普及。该项目还为军事、航空等行业提供通信支持,带来广泛经济效益。
2D轨道图
3D轨道图
轨道高度分析图
轨道倾角分析图
轨道综合分析图
查看轨道综合分析图